Wind_Speed
15 14 15 19 21 23 27 30 34 38 42 49 50 51 54 57 60 64 67 68 70 72 74 76 78 78 78 77 76 75 75 76 78 80 81 82 82 81 79 76 75 72 70 67
17 14 16 21 23 26 31 36 40 42 44 50 54 56 59 62 65 68 70 72 75 78 79 78 74 70 64 59 55 53 52 53 55 58 62 68 72 77 80 81 81 79 76 72
18 15 16 23 25 30 35 40 44 48 50 52 55 59 62 64 67 71 75 77 78 75 69 61 53 48 44 41 38 37 35 33 32 32 33 36 41 48 56 64 71 75 75 72
19 20 22 26 29 35 39 44 48 49 52 55 58 61 63 67 73 77 78 75 68 57 49 43 41 40 40 40 40 40 40 39 38 37 34 33 32 31 31 34 42 50 57 63
23 23 28 33 36 40 44 48 52 53 56 60 62 65 68 72 76 74 68 59 49 43 40 40 41 42 43 44 45 45 45 45 45 43 41 39 36 33 32 31 30 31 35 43
27 30 32 37 41 44 47 49 55 57 60 62 65 69 71 73 68 61 53 47 43 42 43 44 46 48 49 49 49 49 48 48 48 47 45 43 40 37 35 34 32 30 30 32
29 32 37 40 44 45 47 51 53 56 60 64 69 73 72 65 55 49 45 45 45 47 49 51 52 53 54 53 53 51 50 49 48 47 46 44 42 40 38 37 35 33 32 31
31 34 40 43 46 49 52 55 58 61 64 68 71 70 64 55 49 48 48 49 51 53 55 56 56 56 55 54 53 52 51 49 48 47 46 44 43 41 41 39 37 35 33 32
34 37 42 46 49 52 55 58 60 63 66 71 71 65 56 50 49 50 52 54 56 57 58 57 57 57 56 55 53 52 51 49 47 46 44 43 42 42 41 40 38 36 34 33
35 38 42 47 50 53 56 58 62 65 69 72 67 59 51 50 51 54 56 58 59 58 57 55 54 53 54 53 52 51 49 47 45 43 42 40 40 40 39 39 38 36 34 33
39 42 43 46 50 54 57 60 63 67 70 69 61 54 51 52 54 57 59 60 59 59 57 55 53 52 50 49 47 46 43 41 39 37 36 36 36 35 35 35 34 33 31 31
41 44 47 49 52 56 58 61 64 67 69 64 56 52 52 54 56 59 60 60 60 59 57 53 50 47 44 41 39 37 34 33 32 31 31 32 32 31 31 31 31 30 30 29
42 44 47 49 52 56 59 61 64 68 67 59 52 50 52 54 56 59 60 61 59 57 54 51 46 41 37 33 29 28 27 27 27 27 27 27 26 25 25 26 27 28 27 25
44 45 46 49 52 55 58 61 64 66 62 55 50 49 51 53 56 59 61 62 59 56 52 47 41 35 29 26 24 22 21 21 21 20 20 19 18 19 20 21 23 22 22 21
44 45 47 48 51 55 57 60 62 64 60 52 48 47 49 53 56 59 61 62 60 57 51 45 39 33 28 24 21 18 17 15 13 10 8 9 12 16 19 21 20 18 18 17
42 43 45 47 50 54 57 59 62 63 59 50 45 45 48 51 54 57 59 60 59 56 52 48 42 36 31 27 23 20 17 13 9 5 7 13 18 21 22 20 17 16 15 16
41 43 45 47 50 53 56 59 61 62 57 48 43 43 45 49 53 55 57 58 58 56 53 50 44 39 35 30 26 23 21 19 18 18 19 21 22 22 21 19 17 16 16 18
41 43 46 48 51 53 55 57 59 60 56 47 40 40 42 46 50 52 54 55 55 55 53 50 46 42 38 32 27 24 22 21 21 21 22 22 21 20 19 18 17 18 19 21
40 42 44 47 49 52 54 55 57 58 56 46 38 36 39 42 45 48 50 51 52 52 52 50 47 43 40 35 30 25 22 20 19 18 18 19 19 19 18 18 19 20 21 22
40 42 43 45 48 51 53 54 54 56 55 47 37 33 35 38 41 43 45 46 48 49 49 49 47 45 42 38 34 30 26 21 18 16 16 16 17 18 19 21 22 22 23 26
40 42 42 44 47 50 51 52 52 53 54 49 39 31 31 34 37 39 40 40 41 42 43 44 44 43 41 40 39 36 33 29 25 20 17 17 19 21 22 23 23 24 25 28
39 41 41 43 46 48 50 50 51 52 52 49 40 31 28 28 31 34 35 36 36 37 37 38 39 39 39 38 38 38 37 36 33 30 27 25 25 25 25 25 26 26 27 28
39 41 41 43 45 47 48 48 49 50 50 49 42 32 27 26 27 29 30 31 30 31 32 33 33 34 35 35 36 37 38 39 38 37 36 34 32 30 29 29 28 28 28 27
40 41 41 42 44 45 46 45 46 47 49 49 45 36 27 24 24 25 26 27 27 26 26 27 27 28 30 30 31 31 33 34 34 35 34 34 33 31 29 28 27 26 25 25
40 41 41 42 44 44 44 43 43 44 46 48 46 40 30 23 21 21 21 22 22 22 21 21 22 22 23 24 25 25 26 26 27 28 28 27 27 26 25 24 24 23 23 23
39 40 41 42 43 43 42 42 42 42 43 45 45 41 32 24 20 19 18 18 18 18 17 17 17 17 17 17 18 18 19 19 19 20 20 20 21 21 21 20 20 19 19 19
39 40 40 41 43 42 42 41 40 41 41 42 44 42 34 25 20 18 17 16 15 15 14 13 13 14 13 13 12 12 12 12 12 13 14 15 15 15 15 15 15 14 14 14
Wind_Direction
317 312 300 293 294 303 303 303 304 306 307 306 308 307 306 305 305 304 302 301 301 299 297 295 294 291 290 288 286 284 281 278 274 271 268 265 263 262 261 261 261 262 263 263
319 317 307 300 304 307 305 307 309 310 311 310 311 310 310 310 308 306 305 304 303 301 298 296 294 293 293 292 292 292 291 289 285 278 272 267 264 262 260 259 259 260 261 261
331 328 315 306 313 311 313 315 315 316 315 313 313 313 313 313 311 310 309 307 305 302 301 299 297 296 296 297 298 298 299 300 299 295 287 280 273 267 262 259 258 259 259 259
341 338 321 322 322 320 320 319 318 319 318 318 317 317 318 317 315 315 312 309 307 306 305 304 303 301 299 298 296 295 293 292 291 291 290 286 281 276 272 266 261 258 256 255
344 339 324 329 329 326 326 325 323 324 323 322 321 321 322 320 318 315 313 312 311 310 308 307 306 305 303 300 296 293 291 289 287 286 286 285 282 277 273 272 269 265 260 254
340 336 328 333 330 331 330 328 327 326 324 321 321 322 323 322 320 320 320 317 314 311 308 307 305 303 301 299 296 293 291 288 285 284 282 280 278 274 270 269 269 269 267 260
338 335 330 334 331 330 329 328 326 324 324 325 327 327 327 326 325 324 321 317 313 309 307 305 303 301 300 298 296 293 290 287 284 282 280 277 273 269 267 265 265 266 267 264
337 335 331 332 331 332 331 330 329 329 329 330 330 331 330 330 328 326 322 318 313 310 307 305 303 300 298 296 294 291 288 285 282 280 278 274 270 267 264 263 261 261 263 264
337 334 332 332 333 332 331 331 331 331 332 333 334 334 333 332 330 326 323 319 315 312 309 306 303 301 298 294 292 290 287 285 282 278 275 272 268 264 260 259 257 257 257 258
334 334 333 332 331 331 332 332 333 335 336 337 336 336 336 334 331 328 324 321 318 315 313 310 306 303 299 295 292 289 287 285 282 277 273 269 266 262 258 255 253 252 252 249
334 334 333 330 330 332 334 335 337 338 339 339 339 339 338 337 334 331 328 326 323 320 317 313 308 305 302 297 292 289 287 285 280 275 272 267 263 260 256 250 246 244 242 241
333 332 332 332 333 334 337 338 340 341 342 342 341 341 341 340 338 336 335 333 329 326 323 320 316 312 307 302 297 293 289 286 281 276 271 265 260 257 251 242 237 234 232 234
331 332 332 333 334 336 338 340 342 344 344 344 344 344 345 345 344 343 341 339 336 334 332 328 325 321 316 311 307 301 296 291 285 277 270 263 257 250 239 230 225 221 222 225
331 332 333 335 336 338 340 342 344 346 346 345 346 348 349 349 350 350 350 351 349 346 344 342 340 338 333 328 323 316 309 301 292 282 270 258 244 227 215 208 204 204 208 212
332 333 334 336 338 339 341 343 346 348 349 348 349 351 353 354 355 357 357 358 359 359 359 358 358 358 355 352 348 342 334 324 314 297 266 225 199 186 179 176 179 186 194 198
332 333 335 337 339 340 342 345 348 350 351 350 352 354 357 358 360 2 3 4 6 8 9 10 12 13 14 13 13 12 10 13 23 61 118 138 146 150 152 155 159 166 174 176
333 335 337 339 340 342 344 346 349 351 352 351 353 356 360 2 4 6 7 8 10 11 12 14 16 18 20 22 27 32 39 49 65 86 105 119 129 135 140 144 149 153 157 157
335 337 339 340 341 343 345 347 350 352 354 353 354 357 0 3 5 7 8 10 11 13 15 17 19 21 24 28 35 43 53 64 76 88 100 112 121 128 133 137 142 146 147 144
334 337 338 339 341 343 345 348 350 353 355 354 354 356 360 3 5 6 8 10 12 15 17 20 22 25 28 32 38 46 56 65 76 87 99 111 120 127 131 135 139 141 140 139
333 336 338 339 340 343 345 347 350 353 355 356 354 355 359 1 4 6 8 11 14 18 21 24 28 33 37 40 45 49 55 62 73 88 103 114 122 127 130 133 134 133 131 132
330 334 337 339 340 342 344 346 350 353 355 356 354 353 357 360 2 5 7 11 15 20 23 27 33 38 43 47 51 55 58 61 67 82 97 111 120 125 129 130 129 130 130 131
327 331 335 337 339 342 343 345 348 351 355 356 355 352 353 357 0 3 6 10 14 19 23 27 33 39 45 49 53 59 64 67 73 81 90 102 112 117 121 124 126 128 130 132
324 328 332 335 338 341 342 344 346 349 353 356 356 352 349 351 356 0 4 8 12 17 21 25 30 36 42 48 54 61 66 69 74 79 85 92 100 108 113 116 119 122 126 130
320 325 329 333 336 339 341 342 345 348 351 354 356 354 349 346 348 352 358 3 8 13 17 22 26 31 37 44 51 59 64 69 74 78 82 86 92 99 106 111 115 119 123 128
316 321 325 329 334 337 339 340 343 346 349 352 353 354 349 342 340 342 348 355 360 6 12 17 22 27 33 40 46 53 61 67 71 76 79 83 87 93 100 106 111 116 121 126
312 316 320 325 330 334 337 338 341 344 348 350 351 352 349 340 334 333 336 342 350 356 3 10 15 19 25 33 41 46 51 59 66 73 78 81 85 90 96 103 109 115 120 125
307 311 316 321 328 332 335 336 338 341 344 347 349 350 349 341 330 326 324 327 334 344 352 358 5 12 16 21 27 33 39 45 55 67 77 84 89 94 100 106 112 117 123 131
Height
5849 5847 5846 5843 5840 5837 5832 5827 5821 5816 5809 5798 5792 5786 5778 5771 5762 5752 5742 5733 5724 5715 5705 5696 5688 5680 5672 5666 5660 5656 5652 5650 5648 5647 5647 5649 5651 5654 5656 5660 5663 5667 5672 5678
5846 5843 5841 5838 5835 5832 5826 5820 5814 5808 5802 5792 5782 5774 5766 5757 5746 5735 5724 5714 5703 5692 5682 5671 5662 5654 5647 5641 5636 5631 5627 5624 5620 5619 5619 5620 5622 5625 5630 5635 5639 5644 5650 5656
5842 5840 5838 5833 5831 5825 5820 5812 5805 5798 5791 5782 5773 5763 5753 5742 5730 5717 5705 5692 5679 5666 5656 5647 5640 5634 5630 5626 5622 5618 5614 5611 5607 5604 5602 5601 5601 5603 5605 5609 5614 5620 5626 5633
5839 5837 5832 5832 5825 5819 5813 5805 5796 5789 5780 5770 5760 5750 5739 5725 5709 5695 5681 5667 5656 5646 5639 5633 5627 5622 5618 5614 5610 5606 5603 5600 5597 5595 5592 5591 5591 5591 5592 5592 5594 5597 5603 5610
5836 5833 5828 5822 5817 5811 5804 5795 5785 5777 5767 5757 5745 5735 5725 5708 5692 5676 5661 5650 5641 5634 5628 5623 5617 5612 5607 5603 5598 5594 5590 5587 5585 5582 5581 5580 5580 5581 5581 5582 5582 5584 5586 5591
5833 5828 5823 5819 5810 5803 5797 5788 5776 5766 5756 5745 5734 5722 5712 5694 5676 5661 5649 5640 5632 5625 5619 5613 5607 5600 5594 5589 5584 5579 5575 5572 5570 5568 5567 5567 5567 5568 5569 5570 5571 5573 5575 5577
5830 5824 5816 5813 5804 5799 5791 5783 5772 5761 5748 5734 5720 5706 5690 5676 5663 5651 5641 5632 5623 5615 5607 5600 5593 5585 5579 5573 5567 5563 5559 5555 5553 5551 5550 5551 5552 5553 5555 5556 5559 5561 5563 5566
5826 5820 5814 5805 5797 5789 5781 5770 5759 5748 5735 5722 5708 5692 5675 5661 5651 5641 5632 5623 5613 5603 5594 5585 5576 5568 5561 5555 5549 5544 5541 5538 5536 5534 5533 5534 5536 5538 5540 5542 5545 5548 5551 5554
5821 5817 5808 5798 5790 5782 5772 5762 5750 5738 5725 5710 5694 5679 5665 5653 5642 5632 5621 5610 5599 5587 5577 5568 5558 5549 5542 5536 5530 5525 5522 5519 5518 5516 5516 5516 5518 5521 5524 5527 5531 5535 5539 5542
5817 5811 5803 5794 5785 5777 5767 5754 5741 5727 5713 5697 5681 5668 5656 5645 5633 5621 5609 5596 5583 5571 5560 5550 5540 5530 5522 5516 5510 5506 5503 5501 5499 5498 5498 5499 5501 5504 5508 5512 5517 5522 5526 5531
5811 5805 5799 5791 5780 5770 5759 5746 5732 5718 5702 5686 5671 5659 5647 5636 5624 5611 5597 5584 5569 5556 5543 5532 5522 5512 5504 5497 5491 5487 5485 5483 5482 5482 5482 5484 5486 5489 5493 5498 5503 5510 5515 5521
5806 5798 5790 5782 5771 5761 5749 5737 5724 5710 5695 5679 5664 5651 5640 5628 5615 5601 5586 5571 5556 5542 5527 5515 5504 5495 5487 5480 5474 5471 5470 5468 5468 5468 5468 5470 5472 5476 5480 5486 5492 5499 5506 5512
5801 5793 5785 5775 5765 5754 5742 5730 5716 5702 5687 5672 5659 5647 5635 5622 5609 5594 5578 5561 5545 5529 5514 5501 5490 5481 5473 5467 5463 5460 5458 5457 5456 5456 5456 5458 5461 5465 5470 5477 5484 5492 5500 5506
5794 5786 5778 5769 5759 5747 5736 5724 5711 5696 5681 5666 5654 5643 5631 5619 5605 5589 5573 5555 5538 5522 5507 5494 5482 5473 5466 5461 5457 5454 5451 5449 5447 5446 5446 5449 5452 5457 5464 5471 5480 5488 5496 5502
5787 5779 5772 5763 5753 5743 5731 5719 5707 5692 5677 5664 5652 5641 5629 5617 5603 5587 5571 5554 5538 5522 5507 5494 5482 5473 5466 5460 5455 5451 5448 5445 5442 5441 5441 5444 5449 5455 5463 5471 5480 5488 5495 5501
5783 5775 5767 5759 5749 5739 5727 5714 5702 5688 5674 5661 5650 5639 5628 5616 5602 5588 5573 5557 5542 5527 5513 5500 5489 5479 5471 5465 5459 5454 5449 5446 5443 5442 5443 5447 5453 5460 5468 5476 5483 5490 5496 5501
5777 5769 5761 5753 5744 5733 5722 5710 5698 5685 5671 5659 5648 5639 5628 5617 5605 5592 5578 5564 5549 5535 5522 5509 5498 5488 5479 5472 5466 5461 5456 5453 5451 5451 5453 5457 5462 5469 5475 5481 5487 5493 5498 5502
5771 5763 5754 5746 5738 5729 5718 5707 5695 5682 5669 5658 5647 5638 5628 5618 5607 5596 5584 5571 5558 5545 5532 5520 5508 5498 5489 5481 5475 5471 5467 5465 5464 5464 5466 5469 5474 5478 5483 5488 5493 5498 5502 5506
5766 5759 5751 5742 5734 5724 5714 5704 5693 5681 5668 5657 5647 5638 5629 5620 5611 5600 5589 5579 5567 5556 5543 5531 5519 5509 5500 5492 5486 5481 5478 5477 5476 5476 5478 5480 5483 5487 5491 5495 5500 5504 5508 5513
5762 5755 5747 5739 5730 5721 5711 5701 5690 5679 5668 5656 5646 5638 5631 5622 5614 5605 5596 5586 5575 5564 5554 5543 5533 5522 5513 5505 5498 5493 5489 5487 5486 5486 5487 5489 5491 5495 5499 5503 5507 5511 5516 5520
5756 5750 5743 5735 5726 5717 5708 5698 5688 5678 5667 5656 5646 5638 5631 5624 5616 5609 5602 5593 5584 5575 5566 5557 5547 5538 5529 5521 5513 5507 5502 5499 5496 5495 5496 5497 5500 5503 5507 5511 5515 5520 5524 5530
5751 5745 5739 5732 5723 5714 5704 5695 5685 5676 5666 5656 5646 5638 5632 5626 5619 5612 5606 5598 5591 5584 5576 5568 5560 5552 5544 5537 5530 5523 5518 5514 5511 5509 5508 5509 5511 5514 5517 5521 5525 5530 5534 5539
5746 5740 5734 5727 5719 5711 5702 5692 5683 5674 5665 5656 5646 5638 5631 5626 5621 5615 5610 5604 5597 5591 5585 5579 5572 5565 5559 5552 5546 5540 5535 5531 5527 5525 5524 5524 5525 5527 5530 5534 5537 5541 5546 5550
5740 5734 5729 5722 5715 5707 5699 5690 5682 5672 5663 5654 5646 5637 5631 5626 5621 5616 5611 5606 5601 5596 5591 5586 5581 5576 5571 5565 5560 5556 5551 5548 5545 5542 5541 5541 5542 5543 5545 5547 5549 5553 5556 5560
5733 5728 5723 5717 5711 5703 5696 5687 5680 5671 5662 5653 5644 5636 5629 5625 5621 5617 5613 5609 5604 5600 5595 5591 5588 5584 5580 5576 5572 5568 5565 5562 5559 5557 5556 5555 5555 5556 5557 5559 5561 5563 5565 5568
5726 5722 5716 5711 5705 5699 5691 5683 5676 5668 5660 5652 5643 5635 5628 5623 5619 5616 5612 5609 5606 5602 5598 5595 5592 5589 5586 5583 5580 5577 5575 5572 5570 5568 5567 5567 5566 5566 5567 5568 5569 5571 5573 5575
5719 5714 5710 5705 5699 5692 5685 5678 5671 5665 5658 5650 5642 5634 5626 5621 5617 5614 5611 5608 5605 5603 5599 5597 5594 5591 5589 5587 5585 5583 5581 5580 5578 5577 5576 5575 5575 5575 5575 5575 5576 5577 5579 5581